Location: Laverne
(36.7100°N, 99.8930°W)
Time: 02:45:18
(UTC-05:00)

Daily predictions for brighter satellites

Satellite Brightness Start Highest point End
(mag) Time Altitude Azimuth Time Altitude Azimuth Time Altitude Azimuth
Cosmos 1110 Rocket 4.3 00:05:25 63° NW 00:05:25 63° NW 00:10:24 10° NNE
Lacrosse 5 4.0 00:09:48 17° NE 00:09:48 17° NE 00:10:55 10° NE
ASTEX 1 3.9 00:07:28 10° N 00:11:31 57° NNW 00:11:31 57° NNW
Okean 1 Rocket 4.4 00:17:40 39° NNW 00:17:40 39° NNW 00:20:36 10° N
Cosmos 1809 Rocket 4.5 00:19:25 72° NE 00:19:25 72° NE 00:25:04 10° N
H-2A R/B 3.3 00:24:55 33° W 00:24:55 33° W 00:29:31 10° NNW
Cosmos 1535 Rocket 4.5 00:25:30 80° NNE 00:25:30 80° NNE 00:31:32 10° N
Cosmos 1833 Rocket 3.6 00:27:15 10° NW 00:31:40 40° W 00:31:40 40° W
Cosmos 1943 Rocket 4.4 00:37:33 14° ENE 00:37:33 14° ENE 00:38:34 10° NE
NOSS 3-1 (C) 4.0 00:40:57 10° NNW 00:48:38 73° ENE 00:49:18 69° E
Cosmos 2082 Rocket 4.0 00:47:22 10° NW 00:50:49 22° W 00:50:49 22° W
Meteor 2-4 Rocket 4.4 00:48:02 10° N 00:52:01 50° N 00:52:01 50° N
USA 234 4.5 00:48:06 10° NNE 00:54:02 38° NNW 00:59:58 10° W
Cosmos 2369 Rocket 3.4 01:39:18 37° NW 01:39:18 37° NW 01:43:43 10° N
CZ-2C R/B 4.5 01:45:58 32° NNE 01:45:58 32° NNE 01:48:56 10° N
MOS 1-B Rocket 4.5 01:49:04 57° NW 01:49:04 57° NW 01:54:19 10° NNW
Cosmos 2173 Rocket 4.4 01:49:56 59° NNE 01:49:56 59° NNE 01:55:00 10° N
Lacrosse 5 3.8 01:48:56 24° NW 01:49:11 25° NW 01:53:21 10° NNE
CZ-2C R/B 3.7 01:48:51 10° NNE 01:52:09 40° N 01:52:09 40° N
Cosmos 1943 Rocket 3.3 02:19:04 39° NNW 02:19:04 39° NNW 02:23:10 10° N
Tsikada Rocket 4.5 02:12:53 10° N 02:18:25 55° NE 02:18:25 55° NE
Cosmos 2098 Rocket 4.3 02:22:43 68° ENE 02:22:43 68° ENE 02:29:33 10° N
ATLAS 2AS CENTAUR R/B 2.9 02:22:19 10° NNW 02:30:12 85° WNW 02:30:12 85° WNW
ATLAS 3B CENTAUR R/B 4.5 02:41:50 50° SW 02:46:21 64° S 03:19:47 10° E
BREEZE-M DEB (TANK) 4.4 02:57:18 10° NW 03:02:24 87° NE 03:26:59 10° SE
Cosmos 2233 Rocket 4.0 03:12:26 67° NW 03:12:26 67° NW 03:17:59 10° N
ATLAS CENTAUR R/B 3.1 03:19:27 35° E 03:19:27 35° E 03:23:02 10° NE
CZ-2D R/B 4.2 03:15:34 10° NE 03:19:03 17° E 03:20:34 15° ESE
SeaSat 1 3.8 03:23:59 31° NW 03:23:59 31° NW 03:26:37 10° NNW
Cosmos 1697 Rocket 4.1 03:24:08 27° ESE 03:24:36 27° ESE 03:29:19 10° NE
Cosmos 2082 4.3 03:22:49 10° NNW 03:28:19 52° ENE 03:29:42 42° ESE
Cosmos 1980 Rocket 4.1 03:31:21 17° ESE 03:32:47 19° E 03:36:33 10° ENE
IRS-P3 4.3 03:31:15 10° N 03:36:06 64° NW 03:36:06 64° NW
Cosmos 2227 Rocket 2.4 03:33:44 10° NNW 03:39:25 69° ENE 03:40:20 58° ESE
Meteor 2-5 Rocket 4.0 03:34:11 10° N 03:40:03 66° E 03:41:11 54° SE
Cosmos 1898 Rocket 3.9 03:38:15 10° N 03:43:33 60° ENE 03:44:32 51° ESE
Cosmos 1072 Rocket 4.4 03:45:52 71° SW 03:46:29 77° W 03:52:55 10° N
BREEZE-M R/B 4.3 03:44:37 10° NW 03:51:08 72° NE 03:57:46 10° ESE
USA 161 4.5 03:52:45 17° NNE 03:52:45 17° NNE 03:53:42 10° NNE
CBERS 1 LM4 rocket 4.3 03:47:03 10° NNE 03:51:37 81° NE 03:51:37 81° NE
Cosmos 2278 3.9 03:53:57 54° WNW 03:54:07 54° WNW 03:59:41 10° NNE
Cosmos 2369 3.8 03:55:10 60° WNW 03:55:22 61° WNW 04:01:00 10° NNE
Cosmos 1891 Rocket 4.3 03:54:31 66° S 03:55:27 88° E 04:01:34 10° N
Geosat 4.0 03:51:09 10° NNE 03:56:08 66° WNW 03:56:08 66° WNW
Cosmos 1937 Rocket 4.0 03:51:21 10° N 03:56:26 55° ENE 03:58:31 33° SE
Cosmos 1763 Rocket 4.1 03:56:53 45° SE 03:57:39 48° ESE 04:02:39 10° NNE
NOAA 9 4.5 03:54:37 10° N 04:00:02 76° WNW 04:00:22 72° WSW
AQUA 4.2 03:56:05 10° N 04:00:15 51° NW 04:00:15 51° NW
Cosmos 2297 Rocket 2.3 03:55:15 10° NNW 04:00:55 74° ENE 04:03:14 37° SE
Resurs 1-4 Rocket 2.9 03:57:02 10° NNE 04:02:03 44° E 04:03:35 35° SE
Cosmos 405 Rocket 3.8 03:59:05 10° NNW 04:01:51 42° NNW 04:01:51 42° NNW
Okean O Rocket 4.2 04:01:38 10° ENE 04:03:51 14° E 04:06:05 10° ESE
Cosmos 1766 4.0 04:05:45 48° E 04:05:45 48° E 04:09:26 10° NNE
NPP 4.2 04:00:44 10° N 04:05:48 43° WNW 04:05:57 43° WNW
ADEOS 3.4 04:01:06 10° N 04:06:19 77° WNW 04:06:44 72° WSW
ARIANE 5 R/B 2.6 04:04:04 10° NNE 04:09:12 70° ESE 04:10:12 55° SSE
Cosmos 2034 Rocket 3.9 04:08:08 57° SSW 04:09:23 75° W 04:15:37 10° N
SL-16 R/B 2.8 04:10:04 19° SSE 04:14:34 67° ENE 04:20:40 10° N
Cosmos 1378 4.2 04:11:39 10° N 04:15:16 42° E 04:15:54 38° ESE
ERS-1 4.3 04:10:24 10° N 04:15:28 78° WNW 04:16:03 67° SW
OAO 1 4.4 04:15:12 66° WSW 04:15:53 76° S 04:21:22 10° E
Cosmos-2242 4.4 04:16:24 26° SE 04:17:55 34° E 04:21:49 10° NNE
Cosmos 1408 Rocket 4.2 04:17:40 10° N 04:21:57 51° E 04:23:50 30° SE
UNKNOWN OBJECT B 3.8 04:18:21 10° NNE 04:22:01 39° E 04:22:43 35° SE
Meteor 1-22 Rocket 4.3 04:20:45 47° SSW 04:22:41 86° W 04:28:50 10° N
Nadezhda 4 Rocket 4.0 04:17:11 10° N 04:23:24 84° E 04:26:52 28° S
Cosmos 1766 Rocket 4.3 04:20:18 10° N 04:24:36 50° E 04:26:47 26° SE
Spot 4 Rocket 4.1 04:19:54 10° N 04:24:57 57° WNW 04:25:44 52° WSW
Meteor 1-24 Rocket 3.7 04:20:20 10° N 04:26:05 88° W 04:28:53 33° S
ERS-2 3.5 04:23:28 10° N 04:26:03 30° NW 04:26:03 30° NW
Cosmos 1953 3.2 04:30:12 34° SE 04:31:26 47° E 04:35:20 10° NNE
EO 1 Del DPAF 3.7 04:30:13 38° SE 04:31:29 61° ENE 04:35:19 10° N
SL-24 R/B 4.2 04:30:51 47° S 04:32:14 75° WSW 04:36:52 10° NNW
GPS 2-04 Rocket1 2.6 04:32:32 73° SE 04:32:32 73° SE 04:36:12 10° E
ISS -1.3 04:31:34 10° NNW 04:34:29 29° NNE 04:37:22 10° E
IRS-1D 3.4 04:30:24 10° N 04:35:21 71° WNW 04:36:38 49° SW
Cosmos 1805 4.0 04:36:32 33° SE 04:37:51 49° E 04:41:38 10° NNE
Cosmos 1441 Rocket 3.4 04:35:18 10° N 04:39:18 75° E 04:40:41 39° SSE
Cosmos 1707 4.3 04:40:24 10° NNW 04:42:30 22° WNW 04:42:30 22° WNW
MOS 1-B 4.3 04:38:16 10° NNE 04:44:07 86° ESE 04:47:15 29° SSW
Cosmos 1656 4.3 04:44:43 33° WSW 04:46:26 41° WNW 04:51:48 10° N
UNK 3.7 04:47:36 37° SSW 04:49:18 64° W 04:53:58 10° NNW
SME Rocket 4.2 04:52:01 31° SSW 04:54:30 52° W 05:02:02 10° NNW
Cosmos 1634 Rocket 3.9 04:52:30 23° S 04:56:35 84° W 05:02:54 10° N
ATLAS CENTAUR R/B 3.2 04:55:47 22° W 04:57:34 26° NW 05:01:47 10° N
ASTRO E2 3.9 04:58:28 26° S 04:58:28 26° S 05:01:09 10° SE
CZ-2D R/B 2.4 04:54:07 10° N 04:59:25 54° WNW 05:01:54 30° SW
CZ-2D R/B 3.5 04:56:28 10° NNE 05:00:51 89° WNW 05:03:10 28° SSW
USA 81 4.4 04:56:20 13° S 05:00:59 66° E 05:06:13 10° N
Cosmos 990 Rocket 4.2 04:56:50 10° NNW 05:01:53 48° WSW 05:04:54 23° SSW
Cosmos 2195 Rocket 4.5 04:59:18 10° N 05:05:27 83° E 05:11:33 10° S
Milstar 3 Cent rocket 3.0 05:05:19 27° SW 05:07:43 41° S 05:15:41 10° ESE
Cosmos 1544 3.3 05:05:42 23° S 05:07:49 70° E 05:11:28 10° NNE
CZ-2C R/B 4.2 05:03:16 10° SSE 05:07:56 64° ENE 05:12:31 10° N
Cosmos 1697 Rocket 3.5 05:05:53 25° WSW 05:08:21 37° WNW 05:13:35 10° N
BREEZE-M DEB (TANK) 3.2 05:06:01 25° WSW 05:08:42 56° NW 05:12:45 10° NE
In-Cosmos 22 4.0 05:04:37 10° NNW 05:09:55 77° W 05:15:12 10° S
IRS-1C Rocket 4.1 05:05:34 10° NNE 05:10:51 86° ESE 05:15:03 16° SSW
Cosmos 1092 Rocket 4.2 05:06:21 10° NNW 05:12:26 53° W 05:17:36 15° SSW
ADEOS II 4.2 05:08:49 10° NE 05:13:00 24° E 05:17:09 10° SSE
Cosmos 1980 Rocket 2.5 05:13:09 25° SW 05:16:16 52° WNW 05:21:48 10° NNE
Cosmos 1627 Rocket 4.4 05:11:53 10° N 05:18:11 79° W 05:24:22 10° S
Abrixas 4.5 05:18:58 10° NW 05:21:45 31° NNE 05:24:32 10° E
GEOS 3 Rocket 3.8 05:16:53 10° SSE 05:21:55 49° WSW 05:26:57 10° NW
Cosmos 1674 3.4 05:18:30 10° N 05:22:12 53° E 05:25:52 10° SSE
Cosmos 2227 Rocket 3.9 05:20:03 10° WNW 05:22:04 13° W 05:22:04 13° W
ARGOS Delta rocket 4.1 05:22:12 10° NNE 05:27:19 76° E 05:32:06 10° S
Cosmos 2322 Rocket 2.4 05:22:18 12° SSW 05:27:26 74° ESE 05:33:02 10° NNE
Cosmos 1125 Rocket 3.4 05:26:33 10° NNW 05:31:43 65° WSW 05:36:50 10° S
Cosmos 2151 4.2 05:28:11 10° N 05:32:20 45° E 05:36:27 10° SSE
Cosmos 1500 Rocket 3.5 05:28:18 10° N 05:32:42 78° W 05:37:02 10° S
Cosmos 1470 2.7 05:29:54 12° S 05:33:31 83° W 05:37:30 10° N
PSLV R/B 4.1 05:32:33 10° N 05:36:14 45° WNW 05:38:52 17° SW
Cosmos 1743 Rocket 3.9 05:33:18 10° NNW 05:37:26 44° W 05:41:33 10° SSW
CZ-4B R/B 2.7 05:33:30 10° N 05:37:26 77° WNW 05:41:00 11° SSW
Cosmos 1437 3.4 05:35:40 10° NNW 05:38:46 37° W 05:41:23 13° SSW
Cosmos 1428 Rocket 4.5 05:33:57 10° N 05:40:07 88° E 05:46:13 10° S
Okean O Rocket 2.0 05:36:15 10° N 05:40:27 46° WNW 05:44:04 13° SW
Resurs 1-4 Rocket 3.6 05:37:41 10° NNW 05:41:33 21° WNW 05:44:39 13° WSW
MOZ.5/SAFIR/RUBIN 5/SL-8 3.8 05:37:04 10° S 05:41:44 62° W 05:46:24 10° NNW
NOSS 3-4 (A) 4.5 05:37:45 10° NW 05:43:55 32° WSW 05:50:20 10° S
NOSS 3-4 (C) 4.5 05:37:51 10° NW 05:44:03 33° WSW 05:50:32 10° S
Cosmos 2297 Rocket 3.9 05:41:53 10° WNW 05:44:12 13° W 05:44:55 12° WSW
ADEOS Rocket 4.1 05:39:48 10° NNE 05:46:16 54° E 05:53:22 10° S
ARIANE 5 R/B 4.5 05:45:19 10° NW 05:47:43 13° WNW 05:50:07 10° W
CZ-3 R/B 3.4 05:27:44 14° WSW 05:51:25 50° S 05:58:20 10° ESE
Cosmos 2279 Rocket 4.2 05:45:53 10° SSW 05:51:56 52° W 05:58:02 10° N
Cosmos 2221 2.7 05:52:07 10° S 05:56:21 75° E 06:00:38 10° N
BREEZE-M DEB (TANK) 4.4 05:54:08 10° NW 05:57:05 34° NNE 06:03:24 10° E
SL-16 R/B 4.0 05:55:10 11° SW 05:58:37 17° W 06:02:22 10° NW
SL-16 R/B 2.3 05:54:33 10° SSW 06:00:09 63° WNW 06:05:48 10° NNE
Meteor 1-31 Rocket 4.1 06:03:01 10° NNE 06:06:44 41° E 06:10:24 10° S
Thor Agena Rocket 3.7 06:01:54 10° S 06:06:45 47° W 06:11:37 10° NNW
ISS -2.2 06:08:06 10° WNW 06:10:49 24° SW 06:13:31 10° S
GPS 2-04 Rocket1 2.7 06:08:17 10° W 06:12:09 59° SSW 06:15:49 10° ESE
Cosmos 2322 4.2 06:12:14 10° S 06:17:52 66° ESE 06:23:33 10° NNE
